User: anonymous   Login
Location: Unspecified
(0.0000°N, 0.0000°E)
Time: 03:46:06
(UTC+00:00)
Language:

FAISAT - Orbit

View from above orbital plane
View from above orbital plane
View from above satellite
View from above satellite

Ground track
Ground track

The orbit data is extracted from the following two-line orbital elements,

1 23465U 95002C   24107.93939928  .00000096  00000-0  89017-4 0  9996
2 23465  82.9261 247.6235 0037029 201.3933 278.0259 13.71957435463350
Epoch (UTC): 16 April 2024 22:32:44
Eccentricity: 0.0037029
inclination: 82.9261°
perigee height: 965 km
apogee height: 1020 km
right ascension of ascending node: 247.6235°
argument of perigee: 201.3933°
revolutions per day: 13.71957435
mean anomaly at epoch: 278.0259°
orbit number at epoch: 46335

The dashed part of the orbit path shows where the satellite is in the earth's shadow,  

DLR